Time,TemperatureF,DewpointF,PressureIn,WindDirection,WindDirectionDegrees,WindSpeedMPH,WindSpeedGustMPH,Humidity,HourlyPrecipIn,Conditions,Clouds,dailyrainin,SoftwareType,DateUTC
2013-02-01 00:03:00,33.0,11.0,29.90,WNW,295,15.0,21.0,39,0.00,,,0.45,,2013-02-01 05:03:00,
2013-02-01 00:12:00,33.0,11.0,29.90,WNW,295,15.0,21.0,39,0.00,,,0.45,,2013-02-01 05:12:00,
2013-02-01 00:22:00,33.0,11.0,29.93,NW,305,17.0,23.0,39,0.00,,,0.44,,2013-02-01 05:22:00,
2013-02-01 00:32:00,33.0,11.0,29.93,WNW,295,17.0,25.0,39,0.00,,,0.43,,2013-02-01 05:32:00,
2013-02-01 00:42:00,33.0,11.0,29.93,WNW,295,17.0,25.0,39,0.00,,,0.43,,2013-02-01 05:42:00,
2013-02-01 00:52:00,33.0,11.0,29.93,WNW,300,18.0,25.0,39,0.00,,,0.41,,2013-02-01 05:52:00,
2013-02-01 01:02:00,33.0,11.0,29.93,NW,305,16.0,18.0,39,0.00,,,0.41,,2013-02-01 06:02:00,
2013-02-01 01:11:00,33.0,11.0,29.93,NW,305,16.0,18.0,39,0.00,,,0.41,,2013-02-01 06:11:00,
2013-02-01 01:22:00,33.0,11.0,29.93,NW,305,16.0,18.0,39,0.00,,,0.41,,2013-02-01 06:22:00,
2013-02-01 01:32:00,32.0,10.0,29.93,WNW,300,14.0,23.0,39,0.00,,,0.41,,2013-02-01 06:32:00,
2013-02-01 01:42:00,32.0,10.0,29.93,WNW,300,14.0,23.0,39,0.00,,,0.41,,2013-02-01 06:42:00,
2013-02-01 01:52:00,32.0,10.0,29.93,WNW,300,14.0,23.0,39,0.00,,,0.41,,2013-02-01 06:52:00,
2013-02-01 02:02:00,32.0,10.0,29.93,West,280,12.0,13.0,39,0.00,,,0.41,,2013-02-01 07:02:00,
2013-02-01 02:12:00,31.0,9.0,29.93,WNW,295,7.0,13.0,39,0.00,,,0.41,,2013-02-01 07:12:00,
2013-02-01 02:22:00,31.0,9.0,29.93,WNW,295,7.0,13.0,39,0.00,,,0.41,,2013-02-01 07:22:00,
2013-02-01 02:32:00,31.0,9.0,29.93,WNW,285,6.0,8.0,39,0.00,,,0.41,,2013-02-01 07:32:00,
2013-02-01 02:42:00,31.0,9.0,29.93,WNW,285,6.0,8.0,39,0.00,,,0.41,,2013-02-01 07:42:00,
2013-02-01 02:52:00,31.0,9.0,29.93,WNW,285,6.0,8.0,39,0.00,,,0.41,,2013-02-01 07:52:00,
2013-02-01 03:01:00,29.0,10.0,29.93,WSW,245,2.0,6.0,44,0.00,,,0.06,,2013-02-01 08:01:00,
2013-02-01 03:11:00,29.0,10.0,29.93,WSW,245,2.0,6.0,44,0.00,,,0.06,,2013-02-01 08:11:00,
2013-02-01 03:22:00,29.0,13.0,29.93,WNW,290,1.0,6.0,50,0.00,,,0.04,,2013-02-01 08:22:00,
2013-02-01 03:32:00,30.0,14.0,29.93,NW,315,0.0,1.0,51,0.00,,,0.04,,2013-02-01 08:32:00,
2013-02-01 03:42:00,30.0,14.0,29.93,NW,315,0.0,1.0,51,0.00,,,0.04,,2013-02-01 08:42:00,
2013-02-01 03:52:00,30.0,15.0,29.90,WSW,240,0.0,1.0,52,0.00,,,0.04,,2013-02-01 08:52:00,
2013-02-01 04:01:00,30.0,15.0,29.90,WSW,245,0.0,1.0,53,0.00,,,0.04,,2013-02-01 09:01:00,
2013-02-01 04:11:00,30.0,15.0,29.90,WSW,245,0.0,1.0,53,0.00,,,0.04,,2013-02-01 09:11:00,
2013-02-01 04:21:00,29.0,16.0,29.90,SW,235,0.0,0.0,57,0.00,,,0.04,,2013-02-01 09:21:00,
2013-02-01 04:32:00,29.0,16.0,29.90,SW,235,0.0,0.0,59,0.00,,,0.04,,2013-02-01 09:32:00,
2013-02-01 04:42:00,29.0,16.0,29.90,SW,235,0.0,0.0,59,0.00,,,0.04,,2013-02-01 09:42:00,
2013-02-01 04:52:00,29.0,16.0,29.90,SW,235,0.0,0.0,59,0.00,,,0.04,,2013-02-01 09:52:00,
2013-02-01 05:01:00,28.0,16.0,29.87,SSW,210,0.0,0.0,60,0.00,,,0.04,,2013-02-01 10:01:00,
2013-02-01 05:11:00,28.0,16.0,29.87,SSW,210,0.0,0.0,60,0.00,,,0.04,,2013-02-01 10:11:00,
2013-02-01 05:21:00,28.0,16.0,29.87,SSW,210,0.0,0.0,60,0.00,,,0.04,,2013-02-01 10:21:00,
2013-02-01 05:32:00,27.0,16.0,29.87,SSW,210,0.0,0.0,64,0.00,,,0.04,,2013-02-01 10:32:00,
2013-02-01 05:42:00,27.0,16.0,29.87,SSW,210,0.0,0.0,64,0.00,,,0.04,,2013-02-01 10:42:00,
2013-02-01 05:53:00,28.0,18.0,29.87,SSW,210,0.0,0.0,65,0.00,,,0.04,,2013-02-01 10:53:00,
2013-02-01 06:02:00,28.0,18.0,29.87,SSW,210,0.0,0.0,65,0.00,,,0.04,,2013-02-01 11:02:00,
2013-02-01 06:11:00,28.0,18.0,29.87,SSW,210,0.0,0.0,65,0.00,,,0.04,,2013-02-01 11:11:00,
2013-02-01 06:22:00,29.0,18.0,29.87,SSW,210,0.0,0.0,64,0.00,,,0.04,,2013-02-01 11:22:00,
2013-02-01 06:32:00,29.0,18.0,29.84,SSW,210,0.0,0.0,64,0.00,,,0.04,,2013-02-01 11:32:00,
2013-02-01 06:42:00,29.0,18.0,29.84,SSW,210,0.0,0.0,64,0.00,,,0.04,,2013-02-01 11:42:00,
2013-02-01 06:53:00,31.0,20.0,29.84,SSW,210,1.0,3.0,62,0.00,,,0.04,,2013-02-01 11:53:00,
2013-02-01 07:03:00,31.0,20.0,29.84,SSW,210,1.0,3.0,62,0.00,,,0.04,,2013-02-01 12:03:00,
2013-02-01 07:12:00,31.0,20.0,29.84,SSW,210,1.0,3.0,62,0.00,,,0.04,,2013-02-01 12:12:00,
2013-02-01 07:23:00,31.0,20.0,29.84,SSW,210,1.0,3.0,62,0.00,,,0.04,,2013-02-01 12:23:00,
2013-02-01 07:32:00,32.0,23.0,29.84,NW,315,1.0,1.0,69,0.00,,,0.04,,2013-02-01 12:32:00,
2013-02-01 07:42:00,32.0,23.0,29.84,NW,315,1.0,1.0,69,0.00,,,0.04,,2013-02-01 12:42:00,
2013-02-01 07:52:00,32.0,25.0,29.87,West,270,0.0,0.0,74,0.00,,,0.01,,2013-02-01 12:52:00,
2013-02-01 08:02:00,32.0,25.0,29.87,WNW,285,0.0,0.0,76,0.00,,,0.01,,2013-02-01 13:02:00,
2013-02-01 08:11:00,32.0,25.0,29.87,WNW,285,0.0,0.0,76,0.00,,,0.01,,2013-02-01 13:11:00,
2013-02-01 08:22:00,31.0,26.0,29.87,NW,325,0.0,1.0,81,0.00,,,0.00,,2013-02-01 13:22:00,
2013-02-01 08:33:00,31.0,27.0,29.87,WNW,285,0.0,1.0,84,0.00,,,0.00,,2013-02-01 13:33:00,
2013-02-01 08:42:00,31.0,27.0,29.87,WNW,285,0.0,1.0,84,0.00,,,0.00,,2013-02-01 13:42:00,
2013-02-01 08:53:00,31.0,27.0,29.87,WNW,285,0.0,1.0,84,0.00,,,0.00,,2013-02-01 13:53:00,
2013-02-01 09:03:00,31.0,28.0,29.87,NW,325,0.0,0.0,87,0.00,,,0.00,,2013-02-01 14:03:00,
2013-02-01 09:11:00,31.0,28.0,29.87,NW,325,0.0,0.0,87,0.00,,,0.00,,2013-02-01 14:11:00,
2013-02-01 09:22:00,31.0,28.0,29.87,NW,325,0.0,0.0,87,0.00,,,0.00,,2013-02-01 14:22:00,
2013-02-01 09:32:00,31.0,28.0,29.87,NW,320,0.0,0.0,87,0.00,,,0.00,,2013-02-01 14:32:00,
2013-02-01 09:42:00,31.0,28.0,29.87,NW,320,0.0,0.0,87,0.00,,,0.00,,2013-02-01 14:42:00,
2013-02-01 09:53:00,29.0,26.0,29.87,NNW,340,8.0,13.0,88,0.00,,,0.00,,2013-02-01 14:53:00,
2013-02-01 10:02:00,28.0,25.0,29.90,NNW,330,13.0,14.0,88,0.00,,,0.00,,2013-02-01 15:02:00,
2013-02-01 10:12:00,28.0,26.0,29.93,NNW,330,14.0,16.0,92,0.00,,,0.00,,2013-02-01 15:12:00,
2013-02-01 10:22:00,28.0,26.0,29.93,NNW,330,14.0,16.0,92,0.00,,,0.00,,2013-02-01 15:22:00,
2013-02-01 10:33:00,28.0,26.0,29.93,NNW,330,14.0,16.0,92,0.00,,,0.00,,2013-02-01 15:33:00,
2013-02-01 10:42:00,28.0,26.0,29.93,NNW,330,14.0,16.0,92,0.00,,,0.00,,2013-02-01 15:42:00,
2013-02-01 10:52:00,28.0,26.0,29.93,NW,325,15.0,18.0,92,0.00,,,0.00,,2013-02-01 15:52:00,
2013-02-01 11:03:00,28.0,26.0,29.93,NW,325,15.0,18.0,92,0.00,,,0.00,,2013-02-01 16:03:00,
2013-02-01 11:12:00,26.0,21.0,29.96,NW,325,17.0,20.0,81,0.00,,,0.00,,2013-02-01 16:12:00,
2013-02-01 11:22:00,26.0,21.0,29.96,NW,325,17.0,20.0,81,0.00,,,0.00,,2013-02-01 16:22:00,
2013-02-01 11:33:00,27.0,23.0,29.96,NW,310,17.0,17.0,84,0.00,,,0.00,,2013-02-01 16:33:00,
2013-02-01 11:43:00,26.0,21.0,29.98,NW,315,20.0,25.0,82,0.00,,,0.00,,2013-02-01 16:43:00,
2013-02-01 11:52:00,26.0,21.0,29.98,NW,315,20.0,25.0,82,0.00,,,0.00,,2013-02-01 16:52:00,
2013-02-01 12:02:00,26.0,21.0,29.98,NW,320,20.0,21.0,82,0.00,,,0.00,,2013-02-01 17:02:00,
2013-02-01 12:12:00,29.0,16.0,29.98,NW,320,18.0,28.0,57,0.00,,,0.00,,2013-02-01 17:12:00,
2013-02-01 12:22:00,29.0,16.0,29.98,NW,320,18.0,28.0,57,0.00,,,0.00,,2013-02-01 17:22:00,
2013-02-01 12:32:00,29.0,13.0,29.98,NW,305,21.0,28.0,50,0.00,,,0.00,,2013-02-01 17:32:00,
2013-02-01 12:42:00,29.0,13.0,29.98,NW,305,21.0,28.0,50,0.00,,,0.00,,2013-02-01 17:42:00,
2013-02-01 12:53:00,28.0,6.0,29.98,NW,305,20.0,24.0,39,0.00,,,0.00,,2013-02-01 17:53:00,
2013-02-01 13:32:00,29.0,7.0,30.01,NW,305,16.0,23.0,39,0.00,,,0.00,,2013-02-01 18:32:00,
2013-02-01 13:42:00,29.0,7.0,30.01,NW,305,16.0,23.0,39,0.00,,,0.00,,2013-02-01 18:42:00,
2013-02-01 13:53:00,30.0,8.0,30.01,WNW,285,20.0,25.0,39,0.00,,,0.00,,2013-02-01 18:53:00,
2013-02-01 14:03:00,29.0,7.0,30.01,WNW,295,20.0,20.0,39,0.00,,,0.00,,2013-02-01 19:03:00,
2013-02-01 14:12:00,29.0,7.0,30.01,WNW,295,20.0,20.0,39,0.00,,,0.00,,2013-02-01 19:12:00,
2013-02-01 14:21:00,31.0,9.0,30.04,WNW,295,18.0,22.0,39,0.00,,,0.00,,2013-02-01 19:21:00,
2013-02-01 14:32:00,31.0,9.0,30.04,WNW,295,18.0,21.0,39,0.00,,,0.00,,2013-02-01 19:32:00,
2013-02-01 14:42:00,31.0,9.0,30.04,WNW,295,18.0,21.0,39,0.00,,,0.00,,2013-02-01 19:42:00,
2013-02-01 14:52:00,31.0,9.0,30.04,WNW,300,20.0,31.0,39,0.00,,,0.00,,2013-02-01 19:52:00,
2013-02-01 15:02:00,30.0,8.0,30.04,NW,305,21.0,31.0,39,0.00,,,0.00,,2013-02-01 20:02:00,
2013-02-01 15:11:00,30.0,8.0,30.07,West,280,20.0,28.0,39,0.00,,,0.00,,2013-02-01 20:11:00,
2013-02-01 15:21:00,30.0,8.0,30.07,West,280,20.0,28.0,39,0.00,,,0.00,,2013-02-01 20:21:00,
2013-02-01 15:32:00,30.0,8.0,30.07,NW,305,20.0,21.0,39,0.00,,,0.00,,2013-02-01 20:32:00,
2013-02-01 15:42:00,29.0,7.0,30.07,WNW,295,18.0,24.0,39,0.01,,,0.01,,2013-02-01 20:42:00,
2013-02-01 15:52:00,29.0,7.0,30.07,WNW,295,18.0,24.0,39,0.01,,,0.01,,2013-02-01 20:52:00,
2013-02-01 16:02:00,29.0,7.0,30.10,WNW,290,20.0,24.0,39,0.01,,,0.01,,2013-02-01 21:02:00,
2013-02-01 16:12:00,29.0,7.0,30.10,WNW,290,20.0,24.0,39,0.01,,,0.01,,2013-02-01 21:12:00,
2013-02-01 16:22:00,29.0,7.0,30.10,NW,305,16.0,22.0,39,0.01,,,0.01,,2013-02-01 21:22:00,
2013-02-01 16:32:00,29.0,7.0,30.10,NW,305,16.0,22.0,39,0.01,,,0.01,,2013-02-01 21:32:00,
2013-02-01 16:42:00,29.0,7.0,30.10,NW,305,16.0,22.0,39,0.01,,,0.01,,2013-02-01 21:42:00,
2013-02-01 16:52:00,29.0,7.0,30.10,NW,305,16.0,22.0,39,0.01,,,0.01,,2013-02-01 21:52:00,
2013-02-01 17:02:00,27.0,5.0,30.13,NW,305,20.0,22.0,39,0.00,,,0.01,,2013-02-01 22:02:00,
2013-02-01 17:11:00,27.0,5.0,30.13,NW,305,20.0,22.0,39,0.00,,,0.01,,2013-02-01 22:11:00,
2013-02-01 17:22:00,27.0,5.0,30.13,WNW,295,17.0,23.0,39,0.00,,,0.01,,2013-02-01 22:22:00,
2013-02-01 17:32:00,27.0,5.0,30.13,WNW,300,17.0,23.0,39,0.00,,,0.01,,2013-02-01 22:32:00,
2013-02-01 17:42:00,27.0,5.0,30.13,WNW,300,17.0,23.0,39,0.00,,,0.01,,2013-02-01 22:42:00,
2013-02-01 17:52:00,26.0,4.0,30.16,WNW,295,16.0,20.0,39,0.00,,,0.01,,2013-02-01 22:52:00,
2013-02-01 18:02:00,26.0,4.0,30.16,NW,315,16.0,18.0,39,0.00,,,0.01,,2013-02-01 23:02:00,
2013-02-01 18:11:00,26.0,4.0,30.16,NW,315,16.0,18.0,39,0.00,,,0.01,,2013-02-01 23:11:00,
2013-02-01 18:22:00,26.0,4.0,30.19,WNW,285,17.0,24.0,39,0.00,,,0.01,,2013-02-01 23:22:00,
2013-02-01 18:32:00,26.0,4.0,30.19,WNW,285,17.0,18.0,39,0.00,,,0.01,,2013-02-01 23:32:00,
2013-02-01 18:42:00,26.0,4.0,30.19,WNW,285,17.0,18.0,39,0.00,,,0.01,,2013-02-01 23:42:00,
2013-02-01 18:52:00,26.0,4.0,30.19,WNW,285,17.0,20.0,39,0.00,,,0.01,,2013-02-01 23:52:00,
2013-02-01 19:02:00,26.0,4.0,30.19,WNW,300,17.0,18.0,39,0.00,,,0.01,,2013-02-02 00:02:00,
2013-02-01 19:11:00,26.0,4.0,30.19,WNW,300,17.0,18.0,39,0.00,,,0.01,,2013-02-02 00:11:00,
2013-02-01 19:21:00,26.0,4.0,30.22,WNW,290,17.0,21.0,39,0.00,,,0.01,,2013-02-02 00:21:00,
2013-02-01 19:32:00,26.0,4.0,30.22,WNW,300,16.0,21.0,39,0.00,,,0.01,,2013-02-02 00:32:00,
2013-02-01 19:42:00,26.0,4.0,30.22,WNW,300,16.0,21.0,39,0.00,,,0.01,,2013-02-02 00:42:00,
2013-02-01 19:52:00,26.0,4.0,30.22,WNW,300,16.0,21.0,39,0.00,,,0.01,,2013-02-02 00:52:00,
2013-02-01 20:02:00,25.0,4.0,30.25,NW,305,16.0,20.0,39,0.00,,,0.01,,2013-02-02 01:02:00,
2013-02-01 20:11:00,25.0,4.0,30.25,NW,305,16.0,20.0,39,0.00,,,0.01,,2013-02-02 01:11:00,
2013-02-01 20:22:00,25.0,4.0,30.25,WNW,295,16.0,18.0,39,0.00,,,0.01,,2013-02-02 01:22:00,
2013-02-01 20:32:00,25.0,4.0,30.25,WNW,285,16.0,17.0,39,0.00,,,0.01,,2013-02-02 01:32:00,
2013-02-01 20:42:00,25.0,4.0,30.25,WNW,285,16.0,17.0,39,0.00,,,0.01,,2013-02-02 01:42:00,
2013-02-01 20:52:00,25.0,4.0,30.25,WNW,285,16.0,17.0,39,0.00,,,0.01,,2013-02-02 01:52:00,
2013-02-01 21:01:00,24.0,3.0,30.28,WNW,295,17.0,21.0,39,0.00,,,0.01,,2013-02-02 02:01:00,
2013-02-01 21:11:00,24.0,3.0,30.28,WNW,295,17.0,21.0,39,0.00,,,0.01,,2013-02-02 02:11:00,
2013-02-01 21:22:00,24.0,3.0,30.28,WNW,295,17.0,21.0,39,0.00,,,0.01,,2013-02-02 02:22:00,
2013-02-01 21:32:00,24.0,3.0,30.28,WNW,300,18.0,22.0,39,0.00,,,0.01,,2013-02-02 02:32:00,
2013-02-01 21:42:00,24.0,3.0,30.28,WNW,300,18.0,22.0,39,0.00,,,0.01,,2013-02-02 02:42:00,
2013-02-01 21:52:00,24.0,3.0,30.28,WNW,300,15.0,18.0,39,0.00,,,0.01,,2013-02-02 02:52:00,
2013-02-01 22:02:00,23.0,2.0,30.28,NW,305,15.0,17.0,39,0.00,,,0.01,,2013-02-02 03:02:00,
2013-02-01 22:11:00,23.0,2.0,30.28,NW,305,15.0,17.0,39,0.00,,,0.01,,2013-02-02 03:11:00,
2013-02-01 22:22:00,23.0,2.0,30.28,NW,305,15.0,17.0,39,0.00,,,0.01,,2013-02-02 03:22:00,
2013-02-01 22:32:00,23.0,2.0,30.31,NW,310,15.0,22.0,39,0.00,,,0.01,,2013-02-02 03:32:00,
2013-02-01 22:42:00,23.0,2.0,30.31,NW,305,15.0,15.0,39,0.00,,,0.02,,2013-02-02 03:42:00,
2013-02-01 22:52:00,23.0,2.0,30.31,NW,305,15.0,15.0,39,0.00,,,0.02,,2013-02-02 03:52:00,
2013-02-01 23:02:00,23.0,2.0,30.31,WNW,295,14.0,16.0,39,0.00,,,0.02,,2013-02-02 04:02:00,
2013-02-01 23:11:00,23.0,2.0,30.31,WNW,295,14.0,16.0,39,0.00,,,0.02,,2013-02-02 04:11:00,
2013-02-01 23:22:00,23.0,2.0,30.31,WNW,295,14.0,16.0,39,0.00,,,0.02,,2013-02-02 04:22:00,
2013-02-01 23:32:00,23.0,2.0,30.31,WNW,295,14.0,16.0,39,0.00,,,0.02,,2013-02-02 04:32:00,
2013-02-01 23:52:00,22.0,1.0,30.34,NW,310,15.0,16.0,39,0.00,,,0.02,,2013-02-02 04:52:00,